x

8775870 - Malaquite Beach (corpus Christi), Tx (mqtt2) Weather Station

5:18pm - Fri 23rd Jun 2017 All times are CDT. -5 hours from GMT.

  • Wind
    22mph, 25mph gusts
  • Sea Temp 87°f
  • Air Temp 85°f
  • Sea Pressure 1007.6mb
  • 8775870 - Malaquite Beach (corpus Christi), Tx
  • 8775870 - Malaquite Beach (corpus Christi), Tx

More Historic Weather Station data

Upgrade to MSW Pro to gain access to the past 30 days of data for over 8000 Wavebouys and Weather Stations around the globe.

Join Pro

Comparision Forecast

View Surf forecast
   
Fri 06/23 5:18pm 22 25 mph 1007.6mb 87f 85f
5:12pm 22 25 mph 1007.5mb 87f 85f
5:06pm 22 24 mph 1007.6mb 87f 85f
5:00pm 23 25 mph 1007.6mb 87f 85f
4:54pm 21 23 mph 1007.6mb 87f 85f
4:48pm 21 23 mph 1007.7mb 87f 85f
4:42pm 21 23 mph 1007.7mb 87f 85f
4:36pm 20 24 mph 1007.7mb 87f 85f
4:30pm 22 23 mph 1007.7mb 87f 85f
4:24pm 21 24 mph 1007.7mb 87f 85f
4:18pm 20 22 mph 1007.9mb 87f 85f
4:12pm 18 22 mph 1008mb 87f 85f
4:06pm 21 23 mph 1008mb 87f 85f
4:00pm 18 24 mph 1008.1mb 87f 85f
3:54pm 23 25 mph 1008mb 87f 85f
3:48pm 20 23 mph 1008.1mb 87f 85f
3:42pm 21 24 mph 1008.1mb 87f 85f
3:36pm 23 24 mph 1008.2mb 86f 85f
3:30pm 22 24 mph 1008.3mb 86f 85f
3:24pm 22 26 mph 1008.3mb 86f 85f
3:18pm 22 24 mph 1008.3mb 86f 85f
3:12pm 22 24 mph 1008.4mb 86f 85f
3:06pm 21 26 mph 1008.4mb 86f 85f
3:00pm 22 26 mph 1008.4mb 86f 85f
2:54pm 24 25 mph 1008.3mb 86f 85f
2:48pm 22 26 mph 1008.3mb 86f 85f
2:42pm 23 26 mph 1008.3mb 86f 85f
2:36pm 24 26 mph 1008.3mb 86f 85f
2:30pm 24 29 mph 1008.3mb 86f 85f
2:24pm 24 28 mph 1008.2mb 86f 85f
2:18pm 25 28 mph 1008.2mb 86f 85f
2:12pm 24 28 mph 1008.1mb 86f 85f
2:06pm 22 26 mph 1008.1mb 86f 85f
2:00pm 23 26 mph 1008.3mb 86f 85f
1:54pm 22 25 mph 1008.6mb 86f 85f
1:48pm 23 25 mph 1008.6mb 86f 85f
1:42pm 22 25 mph 1008.6mb 86f 85f
1:36pm 22 25 mph 1008.6mb 86f 85f
1:30pm 21 25 mph 1008.7mb 86f 85f
1:24pm 22 24 mph 1008.7mb 86f 85f
1:18pm 22 24 mph 1008.7mb 86f 85f
1:12pm 22 24 mph 1008.8mb 86f 85f
1:06pm 22 24 mph 1008.8mb 86f 85f
1:00pm 22 24 mph 1008.9mb 86f 85f
12:54pm 20 24 mph 1008.9mb 85f 85f
12:48pm 22 24 mph 1008.7mb 85f 85f
12:42pm 21 23 mph 1008.7mb 85f 85f
12:36pm 20 22 mph 1008.8mb 85f 85f
12:30pm 21 24 mph 1008.7mb 85f 85f
12:24pm 21 24 mph 1008.6mb 85f 85f
12:18pm 21 22 mph 1008.6mb 85f 85f
12:12pm 21 23 mph 1008.6mb 85f 85f
12:06pm 22 24 mph 1008.5mb 85f 85f
12:00pm 22 24 mph 1008.5mb 85f 85f
11:54am 21 25 mph 1008.3mb 85f 85f
11:48am 21 23 mph 1008.3mb 85f 85f
11:42am 20 23 mph 1008.4mb 85f 85f
11:36am 20 22 mph 1008.4mb 85f 85f
11:30am 20 22 mph 1008.3mb 85f 85f
11:24am 22 24 mph 1008.2mb 85f 85f
11:18am 21 23 mph 1008.1mb 85f 85f
11:12am 20 22 mph 1008.1mb 85f 85f
11:06am 17 23 mph 1008mb 85f 85f
11:00am 21 24 mph 1007.9mb 85f 85f
10:54am 22 23 mph 1007.8mb 85f 85f
10:48am 20 23 mph 1007.8mb 85f 85f
10:42am 21 22 mph 1007.8mb 85f 85f
10:30am 20 21 mph 1007.9mb 85f 85f
10:24am 21 23 mph 1008mb 85f 85f
10:18am 21 23 mph 1007.9mb 85f 85f
10:12am 22 23 mph 1007.8mb 85f 84f
10:06am 21 24 mph 1007.9mb 85f 84f
10:00am 22 24 mph 1007.9mb 85f 85f
9:54am 22 25 mph 1007.9mb 85f 84f
9:48am 22 25 mph 1007.8mb 85f 84f
9:42am 20 22 mph 1007.9mb 85f 84f
9:36am 20 23 mph 1007.9mb 85f 84f
9:30am 21 24 mph 1007.9mb 85f 85f
9:24am 23 25 mph 1007.9mb 85f 85f
9:18am 22 26 mph 1007.8mb 85f 85f
9:12am 22 25 mph 1007.7mb 85f 84f
9:06am 23 28 mph 1007.7mb 85f 85f
9:00am 24 29 mph 1007.5mb 85f 84f
8:54am 24 28 mph 1007.5mb 85f 85f
8:48am 23 25 mph 1007.5mb 85f 84f
8:42am 23 26 mph 1007.6mb 85f 84f
8:36am 25 29 mph 1007.5mb 85f 84f
8:30am 23 28 mph 1007.5mb 85f 84f
8:24am 24 28 mph 1007.4mb 85f 84f
8:18am 26 29 mph 1007.3mb 85f 85f
8:12am 25 28 mph 1007.3mb 85f 84f
8:06am 23 29 mph 1007.3mb 85f 84f
8:00am 24 28 mph 1007.3mb 85f 84f
7:54am 25 29 mph 1007.2mb 85f 84f
7:48am 24 28 mph 1007.2mb 85f 84f
7:42am 24 29 mph 1007.2mb 85f 84f
7:36am 25 29 mph 1007mb 85f 84f
7:30am 24 28 mph 1007.1mb 85f 84f
7:24am 25 29 mph 1007mb 85f 84f
7:18am 24 29 mph 1006.9mb 85f 84f
7:12am 24 26 mph 1006.8mb 85f 84f
7:06am 24 28 mph 1006.7mb 85f 84f
7:00am 22 28 mph 1006.7mb 85f 84f
6:54am 24 26 mph 1006.6mb 85f 84f
6:48am 22 28 mph 1006.6mb 85f 84f
6:42am 24 29 mph 1006.5mb 85f 84f
6:36am 25 29 mph 1006.4mb 85f 84f
6:30am 25 30 mph 1006.4mb 85f 84f
6:24am 25 31 mph 1006.4mb 85f 84f
6:18am 24 30 mph 1006.3mb 85f 84f
6:12am 24 29 mph 1006.2mb 85f 84f
6:06am 25 29 mph 1006.1mb 85f 84f
6:00am 24 30 mph 1006.1mb 85f 84f
5:54am 26 30 mph 1006mb 85f 84f
5:48am 28 31 mph 1006mb 85f 84f
5:42am 25 31 mph 1006mb 85f 84f
5:36am 25 30 mph 1006mb 85f 84f
5:30am 24 31 mph 1006mb 85f 84f
5:24am 28 32 mph 1006mb 85f 84f
5:18am 28 30 mph 1006mb 85f 84f
5:12am 26 29 mph 1006mb 85f 84f
5:06am 26 30 mph 1005.9mb 85f 84f
5:00am 26 30 mph 1005.8mb 85f 84f
4:54am 28 30 mph 1005.7mb 85f 84f
4:48am 29 32 mph 1005.7mb 85f 84f
4:42am 28 31 mph 1005.7mb 85f 84f
4:36am 28 31 mph 1005.7mb 85f 84f
4:30am 23 29 mph 1005.8mb 85f 84f
4:24am 26 29 mph 1005.7mb 85f 84f
4:18am 24 31 mph 1005.7mb 85f 84f
4:12am 29 32 mph 1005.5mb 85f 84f
4:06am 28 32 mph 1005.6mb 85f 84f
4:00am 28 33 mph 1005.5mb 85f 84f
3:54am 30 33 mph 1005.5mb 85f 84f
3:48am 26 31 mph 1005.4mb 85f 84f
3:42am 29 34 mph 1005.3mb 85f 84f
3:36am 26 32 mph 1005.3mb 85f 84f
3:30am 29 32 mph 1005.2mb 85f 84f
3:24am 25 30 mph 1005.3mb 85f 84f
3:18am 28 32 mph 1005.3mb 85f 84f
3:12am 28 31 mph 1005.4mb 85f 84f
3:06am 29 32 mph 1005.4mb 85f 84f
3:00am 26 32 mph 1005.4mb 85f 84f
2:54am 28 32 mph 1005.4mb 85f 84f
2:48am 28 32 mph 1005.5mb 85f 84f
2:42am 29 30 mph 1005.5mb 85f 84f
2:36am 29 31 mph 1005.6mb 85f 84f
2:30am 29 31 mph 1005.6mb 85f 84f
2:24am 25 33 mph 1005.6mb 85f 84f
2:18am 28 32 mph 1005.6mb 85f 84f
2:12am 29 31 mph 1005.5mb 85f 84f
2:06am 29 33 mph 1005.5mb 85f 84f
2:00am 29 31 mph 1005.5mb 85f 84f
1:48am 26 31 mph 1005.6mb - -
1:42am 28 31 mph 1005.6mb - -
1:36am 26 31 mph 1005.5mb - -
1:30am 26 29 mph 1005.5mb 86f 84f
1:24am 26 30 mph 1005.5mb 86f 84f
1:18am 26 29 mph 1005.4mb 86f 84f
1:12am 28 30 mph 1005.4mb 86f 84f
1:06am 23 30 mph 1005.4mb 86f 84f
1:00am 25 30 mph 1005.4mb 86f 84f
12:54am 28 31 mph 1005.3mb 86f 84f
12:48am 26 30 mph 1005.3mb 86f -
12:42am 28 31 mph 1005.3mb 86f -
12:36am 26 31 mph 1005.2mb 86f -
12:30am 25 29 mph 1005.2mb 86f 84f
12:24am 24 29 mph 1005.3mb 86f 84f
12:18am 26 30 mph 1005.1mb 86f 84f
12:12am 25 29 mph 1005.1mb 86f 84f
12:06am 25 30 mph 1005.1mb 86f 84f
12:00am 29 30 mph 1005.1mb 86f 84f
Thu 06/22 11:54pm 25 29 mph 1005.1mb 86f 84f
11:48pm 26 29 mph 1005.1mb 86f 84f
11:42pm 24 29 mph 1005.1mb 86f 84f
11:36pm 25 28 mph 1005mb 86f 84f
11:30pm 26 29 mph 1004.9mb 86f 84f
11:24pm 24 28 mph 1005mb 86f 84f
11:18pm 26 29 mph 1004.9mb 86f 84f
11:12pm 28 30 mph 1004.8mb 86f 84f
11:06pm 26 30 mph 1004.7mb 86f 84f
11:00pm 25 30 mph 1004.8mb 86f 84f
10:54pm 28 30 mph 1004.6mb 86f 84f
10:48pm 26 30 mph 1004.5mb 86f 84f
10:42pm 29 30 mph 1004.4mb 86f 84f
10:36pm 26 30 mph 1004.4mb 86f 84f
10:30pm 26 29 mph 1004.4mb 86f 84f
10:24pm 26 30 mph 1004.4mb 86f 85f
10:18pm 26 30 mph 1004.3mb 86f 84f
10:12pm 26 30 mph 1004.2mb 86f 84f
10:06pm 28 30 mph 1004.1mb 86f 84f
10:00pm 26 30 mph 1004.1mb 86f 85f
9:54pm 28 30 mph 1004.1mb 86f 85f
9:48pm 29 32 mph 1003.9mb 86f 84f
9:42pm 28 31 mph 1003.8mb 86f 84f
9:36pm 25 31 mph 1003.8mb 86f 85f
9:30pm 28 31 mph 1003.7mb 86f 85f
9:24pm 29 32 mph 1003.6mb 86f 85f
9:18pm 28 36 mph 1003.7mb 86f 85f
9:12pm 28 33 mph 1003.7mb 86f 85f
9:06pm 28 32 mph 1003.6mb 86f 84f
9:00pm 28 31 mph 1003.7mb 86f 85f
8:54pm 26 31 mph 1003.6mb 86f 85f
8:48pm 28 31 mph 1003.5mb 86f 85f
8:42pm 26 31 mph 1003.5mb 86f 85f
8:36pm 26 31 mph 1003.5mb 86f 85f
8:30pm 28 32 mph 1003.5mb 86f 85f
8:24pm 30 32 mph 1003.4mb 86f 85f
8:18pm 23 30 mph 1003.5mb 86f 85f
8:12pm 29 31 mph 1003.4mb 86f 85f
8:06pm 29 33 mph 1003.4mb 86f 85f
8:00pm 26 32 mph 1003.4mb 86f 85f
7:48pm 26 32 mph 1003.4mb 86f 85f
7:42pm 29 32 mph 1003.3mb 86f 85f
7:36pm 26 32 mph 1003.3mb 86f 85f
7:30pm 28 32 mph 1003.3mb 86f 85f
7:24pm 28 30 mph 1003.3mb 86f 85f
7:18pm 23 32 mph 1003.3mb 86f 85f
7:12pm 29 33 mph 1003.2mb 86f 85f
7:06pm 26 32 mph 1003.2mb 86f 85f
7:00pm 24 31 mph 1003.3mb 86f 85f
6:48pm 26 32 mph 1003.1mb 86f 85f
6:42pm 25 31 mph 1003.1mb 86f 85f
6:36pm 25 30 mph 1003.1mb 86f 85f
6:30pm 28 31 mph 1003.1mb 86f 85f
6:24pm 29 31 mph 1003mb 86f 85f
6:18pm 24 31 mph 1003.2mb 86f 85f
6:12pm 24 30 mph 1003.2mb 86f 85f
6:06pm 24 31 mph 1003.2mb 86f 85f
6:00pm 25 30 mph 1003.3mb 86f 85f
5:54pm 26 31 mph 1003.2mb 86f 85f
5:48pm 28 31 mph 1003.3mb 86f 86f
5:42pm 26 30 mph 1003.3mb 86f 85f
5:36pm 25 28 mph 1003.4mb 86f 85f
5:30pm 23 28 mph 1003.5mb 86f 85f
5:24pm 25 28 mph 1003.5mb 86f 85f
5:18pm 22 28 mph 1003.5mb 86f 85f
5:12pm 23 29 mph 1003.6mb 86f 86f
5:06pm 22 29 mph 1003.7mb 86f 85f
5:00pm 23 28 mph 1003.8mb 86f 85f
4:54pm 24 25 mph 1003.8mb 86f 85f
4:48pm 24 26 mph 1003.8mb 86f 85f
4:42pm 22 25 mph 1003.9mb 86f 85f
4:36pm 23 26 mph 1003.9mb 86f 85f
4:30pm 21 24 mph 1003.9mb 86f 85f
4:24pm 23 25 mph 1004mb 86f 85f
4:18pm 24 28 mph 1004.1mb 86f 85f
4:12pm 22 28 mph 1004.2mb 86f 85f
4:06pm 23 25 mph 1004.3mb 86f 85f
4:00pm 22 25 mph 1004.3mb 86f 85f
3:54pm 22 25 mph 1004.4mb 86f 85f
3:48pm 22 24 mph 1004.5mb 86f 85f
3:42pm 22 24 mph 1004.5mb 86f 85f
3:36pm 21 24 mph 1004.6mb 85f 85f
3:30pm 20 23 mph 1004.6mb 85f 85f
3:24pm 20 23 mph 1004.7mb 85f 85f
3:18pm 22 24 mph 1004.8mb 85f 85f
3:12pm 21 23 mph 1005mb 85f 85f
3:06pm 22 23 mph 1005mb 85f 85f
3:00pm 22 23 mph 1005.1mb 85f 85f
2:54pm 20 22 mph 1005.1mb 85f 85f
2:48pm 22 22 mph 1005.1mb 85f 85f
2:42pm 20 22 mph 1005.1mb 85f 85f
2:36pm 18 22 mph 1005.2mb 85f 85f
2:30pm 20 22 mph 1005.2mb 85f 85f
2:24pm 20 21 mph 1005.3mb 85f 85f
2:18pm 18 21 mph 1005.3mb 85f 85f
2:12pm 18 21 mph 1005.4mb 85f 85f
2:06pm 18 21 mph 1005.5mb 85f 85f
2:00pm 18 20 mph 1005.5mb 85f 85f
1:54pm 18 21 mph 1005.5mb 85f 85f
1:48pm 17 21 mph 1005.5mb 85f 85f
1:42pm 18 20 mph 1005.6mb 85f 85f
1:36pm 20 21 mph 1005.6mb 85f 85f
1:30pm 17 21 mph 1005.6mb 85f 85f
1:24pm 17 20 mph 1005.6mb 85f 85f
1:18pm 17 20 mph 1005.6mb 85f 84f
1:12pm 17 20 mph 1005.7mb 85f 84f
1:06pm 17 18 mph 1005.7mb 85f 84f
1:00pm 16 17 mph 1005.8mb 85f 84f
12:54pm 16 17 mph 1005.9mb 85f 84f
12:48pm 16 17 mph 1006mb 85f 84f
12:42pm 15 16 mph 1006mb 85f 84f
12:36pm 15 16 mph 1006mb 85f 84f
12:30pm 15 15 mph 1006mb 85f 84f
12:24pm 15 15 mph 1006mb 85f 84f
12:18pm 14 15 mph 1006.1mb 85f 84f
12:12pm 13 15 mph 1006.1mb 85f 84f
12:06pm 14 15 mph 1006.1mb 85f 84f
12:00pm 13 14 mph 1006.1mb 84f 84f
11:54am 13 14 mph 1006.1mb 84f 84f
11:48am 11 13 mph 1006.1mb 84f 85f
11:42am 11 14 mph 1006mb 84f 84f
11:36am 10 11 mph 1005.9mb 84f 85f
11:30am 10 10 mph 1005.9mb 84f 84f
11:24am 9 11 mph 1005.9mb 84f 85f
11:18am 9 10 mph 1005.9mb 84f 85f
11:12am 8 10 mph 1006mb 84f 85f
11:06am 9 10 mph 1006mb 84f 85f
11:00am 8 9 mph 1006.1mb 84f 85f
10:54am 8 8 mph 1006.1mb 84f 84f
10:48am 7 9 mph 1006.2mb 84f 85f
10:42am 7 8 mph 1006.2mb 84f 85f
10:36am 7 8 mph 1006.3mb 84f 84f
10:30am 7 8 mph 1006.3mb 84f 84f
10:24am 6 7 mph 1006.2mb 84f 85f
10:18am 5 6 mph 1006.2mb 84f 85f
10:12am 6 7 mph 1006.2mb 84f 85f
10:06am 6 8 mph 1006.3mb 84f 85f
10:00am 7 10 mph 1006.3mb 84f 85f
9:54am 8 11 mph 1006.2mb 84f 85f
9:48am 8 11 mph 1006.1mb 84f 85f
9:42am 8 11 mph 1006.1mb 84f 84f
9:36am 10 13 mph 1006mb 84f 84f
9:30am 10 13 mph 1006mb 84f 84f
9:24am 9 13 mph 1006mb 84f 84f
9:18am 10 11 mph 1006mb 84f 84f
9:12am 8 11 mph 1006mb 84f 83f
9:06am 7 9 mph 1006mb 84f 83f
9:00am 6 8 mph 1006mb 84f 82f
8:54am 6 7 mph 1006mb 84f 82f
8:48am 6 7 mph 1006mb 84f 82f
8:42am 6 8 mph 1006mb 84f 82f
8:36am 5 8 mph 1006mb 84f 82f
8:30am 7 8 mph 1005.9mb 84f 82f
8:24am 6 8 mph 1005.7mb 84f 81f
8:18am 6 8 mph 1005.6mb 84f 81f
8:12am 7 9 mph 1005.5mb 84f 81f
8:06am 7 10 mph 1005.5mb 84f 81f
8:00am 9 11 mph 1005.4mb 84f 80f
7:54am 7 9 mph 1005.5mb 84f 80f
7:48am 7 9 mph 1005.4mb 84f 80f
7:42am 7 9 mph 1005.2mb 84f 80f
7:36am 8 9 mph 1005.1mb 84f 79f
7:30am 8 9 mph 1005.1mb 84f 79f
7:24am 7 8 mph 1005.1mb 84f 79f
7:18am 7 8 mph 1005.1mb 84f 79f
7:12am 7 9 mph 1005.1mb 84f 79f
7:06am 7 8 mph 1005.1mb 84f 79f
7:00am 7 9 mph 1005mb 84f 78f
6:54am 7 9 mph 1004.9mb 84f 78f
6:48am 7 9 mph 1004.8mb 84f 78f
6:42am 8 9 mph 1004.8mb 84f 78f
6:36am 8 9 mph 1004.8mb 84f 78f
6:30am 8 10 mph 1004.8mb 84f 78f
6:24am 8 10 mph 1004.8mb 84f 79f
6:18am 8 9 mph 1004.8mb 84f 79f
6:12am 7 8 mph 1004.7mb 84f 78f
6:06am 7 9 mph 1004.7mb 84f 79f
6:00am 8 10 mph 1004.7mb 84f 79f
5:54am 9 10 mph 1004.7mb 84f 79f
5:48am 7 9 mph 1004.7mb 84f 79f
5:42am 7 8 mph 1004.8mb 84f 79f
5:36am 6 8 mph 1004.7mb 84f 79f
5:30am 6 8 mph 1004.6mb 84f 79f
5:24am 6 8 mph 1004.6mb 84f 79f
5:18am 7 9 mph 1004.5mb 84f 79f
5:12am 7 8 mph 1004.5mb 84f 79f
5:06am 7 9 mph 1004.5mb 84f 79f
5:00am 7 10 mph 1004.4mb 85f 79f
4:54am 7 10 mph 1004.3mb 85f 80f
4:48am 6 7 mph 1004.3mb 85f 80f
4:42am 6 8 mph 1004.2mb 85f 80f
4:36am 6 7 mph 1004.1mb 85f 80f
4:30am 6 8 mph 1004.1mb 85f 81f
4:24am 7 10 mph 1004.1mb 85f 81f
4:18am 9 13 mph 1004.1mb 85f 81f
4:12am 10 11 mph 1004.1mb 85f 81f
4:06am 10 11 mph 1004.1mb 85f 81f
4:00am 9 11 mph 1004.2mb 85f 81f
3:54am 9 11 mph 1004.2mb 85f 80f
3:48am 10 11 mph 1004.1mb 85f 81f
3:42am 8 10 mph 1004.2mb 85f 82f
3:36am 6 8 mph 1004.2mb 85f 82f
3:30am 6 7 mph 1004.3mb 85f 82f
3:24am 5 6 mph 1004.3mb 85f 83f
3:18am 6 8 mph 1004.2mb 85f 83f
3:12am 7 9 mph 1004.2mb 85f 83f
3:06am 6 10 mph 1004.3mb 85f 84f
3:00am 9 10 mph 1004.2mb 85f 84f
2:54am 8 8 mph 1004.3mb 85f 84f
2:48am 7 7 mph 1004.3mb 85f 84f
2:42am 7 8 mph 1004.3mb 85f 84f
2:36am 7 8 mph 1004.2mb 85f 85f
2:30am 8 9 mph 1004.1mb 85f 85f
2:24am 6 7 mph 1004.1mb 85f 85f
2:18am 6 7 mph 1004.2mb 85f 85f
2:12am 3 5 mph 1004.3mb 85f 85f
2:06am 2 2 mph 1004.3mb 85f 85f
2:00am 2 5 mph 1004.4mb 85f 85f
1:54am 3 5 mph 1004.5mb 85f 85f
1:48am 5 6 mph 1004.5mb - -
1:42am 6 6 mph 1004.5mb - -
1:36am 5 6 mph 1004.6mb - -
1:30am 5 6 mph 1004.7mb 85f 85f
1:24am 6 7 mph 1004.7mb 85f 85f
1:18am 6 7 mph 1004.6mb 85f 86f
1:12am 6 8 mph 1004.6mb 85f 86f
1:06am 7 7 mph 1004.6mb 85f 86f
1:00am 6 8 mph 1004.6mb 85f 85f
12:54am 8 9 mph 1004.6mb 85f 86f
12:48am 9 11 mph 1004.7mb 85f -
12:42am 9 11 mph 1004.7mb 85f -
12:36am 10 11 mph 1004.7mb 86f -
12:30am 11 13 mph 1004.8mb 86f 86f
12:24am 11 13 mph 1004.7mb 86f 86f
12:18am 11 13 mph 1004.7mb 86f 86f
12:12am 10 14 mph 1004.7mb 86f 86f
12:06am 13 14 mph 1004.7mb 86f 86f
12:00am 14 15 mph 1004.6mb 86f 86f
Wed 06/21 11:54pm 14 15 mph 1004.6mb 86f 86f
11:48pm 13 14 mph 1004.5mb 86f 86f
11:42pm 13 15 mph 1004.6mb 86f 86f
11:36pm 14 15 mph 1004.7mb 86f 87f
11:30pm 13 14 mph 1004.7mb 86f 86f
11:24pm 10 13 mph 1004.7mb 86f 86f
11:18pm 9 11 mph 1004.6mb 86f 86f
11:12pm 10 11 mph 1004.6mb 86f 86f
11:06pm 10 13 mph 1004.5mb 86f 86f
11:00pm 10 11 mph 1004.4mb 86f 86f
10:54pm 10 13 mph 1004.4mb 86f 86f
10:48pm 10 13 mph 1004.3mb 86f 86f
10:42pm 11 14 mph 1004.1mb 86f 86f
10:36pm 13 15 mph 1004mb 86f 86f
10:30pm 13 14 mph 1004mb 86f 86f
10:24pm 10 14 mph 1003.9mb 86f 86f
10:18pm 13 15 mph 1003.8mb 86f 86f
10:12pm 14 16 mph 1003.8mb 86f 86f
10:06pm 14 15 mph 1003.7mb 85f 86f
10:00pm 14 15 mph 1003.7mb 85f 86f
9:54pm 14 16 mph 1003.7mb 86f 87f
9:48pm 14 16 mph 1003.7mb 86f 87f
9:42pm 15 16 mph 1003.6mb 86f 87f
9:36pm 16 17 mph 1003.6mb 86f 87f
9:30pm 15 20 mph 1003.5mb 86f 87f
9:24pm 16 17 mph 1003.5mb 86f 87f
9:18pm 16 18 mph 1003.4mb 86f 87f
9:12pm 17 21 mph 1003.3mb 86f 88f
9:06pm 17 20 mph 1003.3mb 86f 88f
9:00pm 18 22 mph 1003.2mb 86f 88f
8:54pm 22 23 mph 1003.2mb 86f 89f
8:48pm 21 24 mph 1003.2mb 86f 88f
8:42pm 21 24 mph 1003.2mb 86f 89f
8:36pm 20 22 mph 1003.2mb 86f 88f
8:30pm 18 22 mph 1003.2mb 86f 89f
8:24pm 18 21 mph 1003.2mb 86f 89f
8:18pm 16 18 mph 1003.1mb 86f 89f
8:12pm 14 16 mph 1003.1mb 86f 91f
8:06pm 13 14 mph 1003mb 86f 92f
8:00pm 13 16 mph 1002.9mb 86f 92f
7:54pm 14 16 mph 1002.8mb 86f 93f
7:48pm 14 16 mph 1002.7mb 86f 92f
7:42pm 13 15 mph 1002.7mb 86f 93f
7:36pm 14 17 mph 1002.6mb 86f 93f
7:30pm 15 20 mph 1002.6mb 86f 94f
7:24pm 15 21 mph 1002.5mb 86f 94f
7:18pm 15 21 mph 1002.5mb 86f 94f
7:12pm 15 18 mph 1002.4mb 86f 93f
7:06pm 15 17 mph 1002.4mb 86f 93f
7:00pm 14 17 mph 1002.3mb 86f 93f
6:54pm 14 18 mph 1002.3mb 86f 94f
6:48pm 14 18 mph 1002.3mb 86f 94f
6:42pm 15 18 mph 1002.3mb 86f 94f
6:36pm 14 18 mph 1002.3mb 86f 94f
6:30pm 16 20 mph 1002.3mb 86f 94f
6:24pm 15 20 mph 1002.3mb 86f 94f
6:18pm 16 20 mph 1002.3mb 86f 94f
6:12pm 16 20 mph 1002.2mb 86f 94f
6:06pm 17 23 mph 1002.2mb 86f 94f
6:00pm 14 20 mph 1002.2mb 86f 94f
5:54pm 17 21 mph 1002.2mb 86f 94f
5:48pm 16 21 mph 1002.2mb 86f 94f
5:42pm 15 18 mph 1002.3mb 86f 94f
5:36pm 16 20 mph 1002.4mb 86f 94f
5:30pm 14 17 mph 1002.5mb 86f 94f
5:24pm 15 22 mph 1002.6mb 86f 94f
5:18pm 14 18 mph 1002.7mb 86f 94f
5:12pm 14 23 mph 1002.8mb 86f 94f
5:06pm 18 22 mph 1002.9mb 86f 94f
5:00pm 14 20 mph 1003mb 86f 94f
4:54pm 15 21 mph 1003.1mb 86f 94f
4:48pm 14 21 mph 1003.3mb 86f 94f
4:42pm 16 21 mph 1003.4mb 86f 94f
4:36pm 15 22 mph 1003.5mb 86f 94f
4:30pm 15 21 mph 1003.5mb 86f 94f
4:24pm 15 21 mph 1003.6mb 86f 94f
4:18pm 16 20 mph 1003.6mb 86f 94f
4:12pm 15 20 mph 1003.7mb 86f 94f
4:06pm 16 21 mph 1003.8mb 86f 94f
4:00pm 17 20 mph 1003.9mb 86f 94f
3:54pm 15 22 mph 1004mb 86f 94f
3:48pm 16 21 mph 1004.1mb 86f 93f
3:42pm 18 23 mph 1004.3mb 86f 93f
3:36pm 18 25 mph 1004.4mb 86f 93f
3:30pm 16 23 mph 1004.5mb 86f 93f
3:24pm 20 23 mph 1004.7mb 86f 94f
3:18pm 17 22 mph 1004.8mb 86f 93f
3:12pm 18 23 mph 1004.9mb 86f 93f
3:06pm 15 22 mph 1005.1mb 86f 93f
3:00pm 14 20 mph 1005.2mb 86f 92f
2:54pm 15 21 mph 1005.3mb 86f 93f
2:48pm 18 23 mph 1005.5mb 86f 92f
2:42pm 14 23 mph 1005.5mb 86f 92f
2:36pm 20 22 mph 1005.6mb 86f 92f
2:30pm 20 23 mph 1005.6mb 86f 92f
2:24pm 18 23 mph 1005.6mb 86f 92f
2:18pm 16 22 mph 1005.7mb 86f 92f
2:12pm 18 23 mph 1005.8mb 86f 92f
2:06pm 20 22 mph 1005.8mb 86f 92f
2:00pm 18 23 mph 1005.8mb 86f 91f
1:54pm 14 17 mph 1005.9mb 85f 91f
1:48pm 15 21 mph 1006mb 85f 91f
1:42pm 14 20 mph 1006.2mb 85f 91f
1:36pm 14 20 mph 1006.3mb 85f 90f
1:30pm 15 21 mph 1006.4mb 85f 90f
1:24pm 14 21 mph 1006.4mb 85f 90f
1:18pm 17 21 mph 1006.5mb 85f 90f
1:12pm 18 21 mph 1006.6mb 85f 90f
1:06pm 16 23 mph 1006.6mb 85f 89f
1:00pm 15 24 mph 1006.7mb 85f 89f
12:54pm 20 23 mph 1006.8mb 85f 89f
12:48pm 15 22 mph - 85f -
12:42pm 14 21 mph - 85f -
12:36pm 13 21 mph - 85f -
12:30pm 13 20 mph 1007.2mb 85f 88f
12:24pm 10 20 mph 1007.3mb 85f 87f
12:18pm 14 20 mph 1007.4mb 85f 87f
12:12pm 15 21 mph 1007.6mb 85f 87f
12:06pm 16 20 mph 1007.6mb 85f 87f
12:00pm 14 20 mph 1007.7mb 85f 87f
11:54am 14 20 mph 1007.7mb 85f 86f
11:48am 17 20 mph 1007.8mb 85f 86f
11:42am 15 20 mph 1007.8mb 85f 86f
11:36am 16 22 mph 1007.9mb 85f 86f
11:30am 14 22 mph 1007.9mb 85f 86f
11:24am 17 22 mph 1007.9mb 85f 86f
11:18am 17 21 mph 1008mb 85f 85f
11:12am 15 21 mph 1007.9mb 85f 85f
11:06am 16 23 mph 1008mb 85f 85f
11:00am 16 21 mph 1008.1mb 86f 84f
10:54am 15 20 mph 1008mb 85f 84f
10:48am 14 22 mph 1008mb 85f 84f
10:42am 16 21 mph 1008mb 85f 84f
10:36am 15 21 mph 1008mb 85f 83f
10:30am 16 18 mph 1008.1mb 85f 83f
10:24am 17 21 mph 1008.1mb 85f 83f
10:18am 16 21 mph 1008.2mb 85f 83f
10:12am 15 20 mph 1008.1mb 85f 83f
10:06am 15 21 mph 1008.2mb 85f 82f
10:00am 15 20 mph 1008.2mb 85f 82f
9:54am 16 20 mph 1008.3mb 85f 82f
9:48am 16 20 mph 1008.3mb 85f 82f
9:42am 16 18 mph 1008.3mb 86f 82f
9:36am 16 21 mph 1008.3mb 86f 82f
9:30am 17 22 mph 1008.4mb 86f 82f
9:24am 16 21 mph 1008.4mb 86f 82f
9:18am 14 17 mph 1008.5mb 86f 82f
9:12am 14 16 mph 1008.6mb 86f 82f
9:06am 14 18 mph 1008.6mb 86f 82f
9:00am 15 18 mph 1008.6mb 86f 81f
8:54am 16 21 mph 1008.5mb 86f 81f
8:48am 15 20 mph 1008.5mb 86f 81f
8:42am 14 20 mph 1008.5mb 86f 82f
8:36am 14 18 mph 1008.6mb 86f 82f
8:30am 16 20 mph 1008.5mb 86f 81f
8:24am 14 17 mph 1008.5mb 86f 81f
8:18am 14 17 mph 1008.5mb 86f 81f
8:12am 14 16 mph 1008.5mb 86f 81f
8:06am 14 17 mph 1008.5mb 86f 81f
8:00am 14 18 mph 1008.3mb 86f 81f
7:54am 15 20 mph 1008.4mb 86f 81f
7:48am 16 18 mph 1008.3mb 86f 81f
7:42am 14 17 mph 1008.3mb 86f 81f
7:36am 14 16 mph 1008.3mb 86f 81f
7:30am 14 17 mph 1008.2mb 86f 81f
7:24am 15 17 mph 1008.2mb 86f 81f
7:18am 13 17 mph 1008.1mb 86f 81f
7:12am 14 16 mph 1008.1mb 86f 81f
7:06am 13 15 mph 1008.1mb 86f 81f
7:00am 11 16 mph 1008mb 86f 81f
6:54am 11 16 mph 1008mb 86f 81f
6:48am 11 15 mph 1007.9mb 86f 81f
6:42am 11 15 mph 1007.9mb 86f 81f
6:36am 11 14 mph 1007.8mb 86f 81f
6:30am 11 15 mph 1007.9mb 86f 81f
6:24am 13 16 mph 1007.8mb 86f 81f
6:18am 13 16 mph 1007.9mb 86f 82f
6:12am 13 15 mph 1007.9mb 86f 82f
6:06am 13 17 mph 1007.9mb 87f 82f
6:00am 13 17 mph 1007.9mb 86f 82f
5:54am 14 16 mph 1007.9mb 86f 82f
5:48am 13 17 mph 1007.9mb 86f 82f
5:42am 10 15 mph 1007.9mb 87f 82f
5:36am 9 14 mph 1007.9mb 87f 82f
5:30am 10 13 mph 1008mb 86f 82f
5:24am 11 14 mph 1008mb 86f 82f
5:18am 9 13 mph 1008.1mb 86f 82f
5:12am 9 11 mph 1008.1mb 86f 82f
5:06am 9 13 mph 1008.1mb 86f 82f
5:00am 10 13 mph 1008.2mb 86f 82f
4:54am 9 14 mph 1008.2mb 86f 83f
4:48am 9 13 mph 1008.3mb 86f 83f
4:42am 10 11 mph 1008.3mb 86f 83f
4:36am 9 13 mph 1008.3mb 86f 83f
4:30am 9 11 mph 1008.3mb 86f 83f
4:24am 10 14 mph 1008.3mb 86f 83f
4:18am 10 13 mph 1008.3mb 86f 83f
4:12am 10 13 mph 1008.4mb 86f 83f
4:06am 10 13 mph 1008.5mb 86f 83f
4:00am 10 14 mph 1008.5mb 87f 83f
3:54am 13 14 mph 1008.5mb 87f 84f
3:48am 11 15 mph 1008.5mb 87f 84f
3:42am 13 17 mph 1008.5mb 87f 84f
3:36am 11 14 mph 1008.6mb 87f 84f
3:30am 14 15 mph 1008.7mb 87f 84f
3:24am 13 15 mph 1008.8mb 87f 83f
3:18am 13 15 mph 1008.9mb 87f 84f
3:12am 14 15 mph 1008.9mb 87f 84f
3:06am 14 16 mph 1009mb 87f 84f
3:00am 13 16 mph 1009mb 87f 84f
2:54am 16 18 mph 1009mb 87f 85f
2:48am 15 18 mph 1009.1mb 87f 85f
2:42am 17 20 mph 1009mb 87f 85f
2:36am 18 21 mph 1009.1mb 87f 85f
2:30am 20 22 mph 1009.1mb 87f 85f
2:24am 16 20 mph 1009.1mb 87f 85f
2:18am 10 13 mph 1009.1mb 87f 85f
2:12am 9 11 mph 1009.2mb 87f 85f
2:06am 9 10 mph 1009.3mb 87f 84f
2:00am 8 11 mph 1009.4mb 87f 85f
1:54am 9 11 mph 1009.5mb 87f 84f
1:48am 8 9 mph 1009.5mb 87f 84f
1:42am 8 10 mph 1009.4mb 87f 84f
1:36am 7 8 mph 1009.4mb 87f 84f
1:30am 7 9 mph 1009.5mb 87f 84f
1:24am 8 9 mph 1009.5mb 87f 84f
1:18am 7 8 mph 1009.5mb 87f 84f
1:12am 7 8 mph 1009.7mb 87f 84f
1:06am 7 8 mph 1009.7mb 87f 84f
1:00am 7 8 mph 1009.7mb 87f 84f
12:54am 7 8 mph 1009.8mb 87f 84f
12:48am 8 9 mph 1009.8mb 87f 85f
12:42am 8 9 mph 1009.7mb 87f 85f
12:36am 8 10 mph 1009.7mb 87f 84f
12:30am 9 11 mph 1009.8mb 87f 85f
12:24am 10 11 mph 1009.8mb 87f 85f
12:18am 10 11 mph 1009.9mb 87f 84f
12:12am 9 10 mph 1010mb 87f 85f
12:06am 9 10 mph 1010mb 87f 85f
12:00am 10 11 mph 1010mb 87f 84f
Tue 06/20 11:54pm 10 11 mph 1009.9mb 87f 85f
11:48pm 11 13 mph 1009.9mb 87f 85f
11:42pm 10 13 mph 1009.9mb 87f 85f
11:36pm 10 13 mph 1009.9mb 87f 84f
11:30pm 10 13 mph 1009.9mb 87f 84f
11:24pm 10 11 mph 1009.8mb 87f 85f
11:18pm 11 13 mph 1009.8mb 88f 84f
11:12pm 10 11 mph 1009.8mb 88f 85f
11:06pm 11 13 mph 1009.9mb 88f 85f
11:00pm 11 13 mph 1009.8mb 88f 85f
10:54pm 10 13 mph 1009.8mb 88f 85f
10:48pm 13 14 mph 1009.7mb 88f 85f
10:42pm 13 14 mph 1009.6mb 88f 84f
10:36pm 11 13 mph 1009.5mb 88f 84f
10:30pm 11 14 mph 1009.4mb 88f 84f
10:24pm 11 13 mph 1009.4mb 88f 84f
10:18pm 11 14 mph 1009.4mb 88f 84f
10:12pm 14 15 mph 1009.4mb 88f 85f
10:06pm 14 15 mph 1009.4mb 88f 85f
10:00pm 13 14 mph 1009.3mb 88f 84f
9:54pm 13 14 mph 1009.4mb 88f 85f
9:48pm 13 14 mph 1009.3mb 88f 85f
9:42pm 11 14 mph 1009.3mb 88f 85f
9:36pm 10 13 mph 1009.3mb 88f 85f
9:30pm 11 13 mph 1009.2mb 88f 85f
9:24pm 13 15 mph 1009.2mb 88f 85f
9:18pm 11 13 mph 1009.2mb 88f 85f
9:12pm 11 13 mph 1009.2mb 87f 85f
9:06pm 11 14 mph 1009.2mb 88f 85f
9:00pm 13 14 mph 1009.2mb 88f 85f
8:54pm 13 15 mph 1009.2mb 88f 85f
8:48pm 14 15 mph 1009.2mb 88f 85f
8:42pm 14 15 mph 1009.1mb 88f 85f
8:36pm 13 14 mph 1009.2mb 88f 85f
8:30pm 13 14 mph 1009mb 88f 84f
8:24pm 14 15 mph 1009mb 88f 84f
8:18pm 14 15 mph 1008.9mb 88f 85f
8:12pm 13 15 mph 1008.9mb 88f 85f
8:06pm 11 14 mph 1008.9mb 88f 85f
8:00pm 13 15 mph 1008.8mb 88f 84f
7:54pm 13 14 mph 1008.8mb 88f 84f
7:48pm 13 15 mph 1008.7mb 88f 84f
7:42pm 13 14 mph 1008.7mb 88f 85f
7:36pm 14 14 mph 1008.7mb 88f 85f
7:30pm 13 15 mph 1008.7mb 88f 85f
7:24pm 11 14 mph 1008.6mb 88f 85f
7:18pm 10 13 mph 1008.6mb 88f 85f
7:12pm 10 14 mph 1008.6mb 88f 86f
7:06pm 11 14 mph 1008.6mb 88f 86f
7:00pm 11 13 mph 1008.5mb 88f 86f
6:54pm 13 14 mph 1008.6mb 88f 86f
6:48pm 11 13 mph 1008.7mb 88f 86f
6:42pm 11 13 mph 1008.7mb 88f 86f
6:36pm 10 11 mph 1008.7mb 88f 86f
6:30pm 7 8 mph 1008.7mb 87f 86f
6:24pm 6 7 mph 1008.7mb 87f 86f
6:18pm 6 7 mph 1008.7mb 87f 86f
6:12pm 6 7 mph 1008.8mb 87f 86f
6:06pm 6 7 mph 1008.8mb 87f 86f
6:00pm 5 5 mph 1008.8mb 87f 86f
5:54pm 5 6 mph 1008.7mb 87f 86f
5:48pm 3 5 mph 1008.7mb 87f 86f
5:42pm 3 5 mph 1008.7mb 87f 86f
5:36pm 5 6 mph 1008.8mb 87f 86f
5:24pm 6 7 mph 1008.9mb 87f 86f
5:18pm 6 7 mph 1009mb 87f 86f
5:12pm 6 7 mph 1009mb 87f 86f
5:06pm 5 6 mph 1009.1mb 87f 86f
5:00pm 5 7 mph 1009.2mb 87f 86f
4:54pm 6 7 mph 1009.2mb 87f 86f
4:48pm 6 8 mph 1009.3mb 87f 86f
4:42pm 6 7 mph 1009.3mb 87f 86f
4:36pm 6 7 mph 1009.5mb 87f 86f
4:30pm 7 8 mph 1009.5mb 87f 86f
4:24pm 7 8 mph 1009.6mb 87f 86f
4:18pm 7 8 mph 1009.6mb 87f 86f
4:12pm 7 8 mph 1009.7mb 87f 86f
4:06pm 8 9 mph 1009.8mb 87f 86f
4:00pm 8 9 mph 1009.8mb 87f 86f
3:54pm 8 8 mph 1009.8mb 87f 86f
3:48pm 7 8 mph 1009.9mb 87f 86f
3:42pm 7 9 mph 1010mb 87f 86f
3:36pm 9 9 mph 1010.1mb 87f 86f
3:30pm 9 9 mph 1010.2mb 87f 86f
3:24pm 6 8 mph 1010.3mb 87f 86f
3:18pm 8 9 mph 1010.4mb 87f 86f
3:12pm 7 8 mph 1010.5mb 86f 86f
3:06pm 6 8 mph 1010.5mb 86f 86f
3:00pm 7 8 mph 1010.7mb 86f 86f
2:54pm 8 8 mph 1010.8mb 86f 86f
2:48pm 7 8 mph 1010.8mb 86f 86f
2:42pm 8 8 mph 1010.9mb 86f 86f
2:36pm 7 8 mph 1010.9mb 86f 86f
2:30pm 7 7 mph 1011mb 86f 86f
2:24pm 6 8 mph 1011.2mb 86f 86f
2:18pm 8 9 mph 1011.3mb 86f 86f
2:12pm 8 8 mph 1011.4mb 86f 86f
2:06pm 6 8 mph 1011.4mb 86f 86f
2:00pm 8 8 mph 1011.5mb 86f 86f
1:54pm 8 9 mph 1011.6mb 86f 86f
1:48pm 8 9 mph 1011.8mb 85f 86f
1:42pm 9 9 mph 1011.8mb 85f 85f
1:36pm 8 9 mph 1011.9mb 85f 85f
1:30pm 8 9 mph 1012mb 85f 85f
1:24pm 9 10 mph 1012mb 85f 86f
1:18pm 7 8 mph 1012.1mb 85f 85f
1:12pm 6 9 mph 1012.2mb 85f 86f
1:06pm 10 14 mph 1012.2mb 85f 86f
1:00pm 9 17 mph 1012.3mb 85f 87f
12:54pm 9 14 mph 1012.4mb 85f 87f
12:48pm 11 14 mph 1012.5mb 85f 87f
12:42pm 10 13 mph 1012.6mb 85f 87f
12:36pm 14 16 mph 1012.7mb 85f 87f
12:30pm 13 16 mph 1012.7mb 85f 87f
12:24pm 10 15 mph 1012.7mb 85f 86f
12:18pm 11 15 mph 1012.8mb 85f 86f
12:12pm 11 15 mph 1012.8mb 85f 86f
12:06pm 8 16 mph 1012.8mb 85f 86f
12:00pm 9 14 mph 1012.9mb 85f 86f
11:54am 11 15 mph 1012.9mb 85f 86f
11:48am 13 15 mph 1012.9mb 85f 86f
11:42am 11 15 mph 1012.9mb 85f 85f
11:36am 11 15 mph 1012.9mb 85f 85f
11:30am 9 13 mph 1012.9mb 85f 85f
11:24am 10 14 mph 1012.9mb 85f 85f
11:18am 11 14 mph 1013mb 85f 84f
11:12am 11 15 mph 1013mb 85f 84f
11:06am 10 16 mph 1013.1mb 85f 84f
11:00am 9 16 mph 1013.2mb 85f 84f
10:54am 11 15 mph 1013.2mb 85f 84f
10:48am 14 16 mph 1013.2mb 85f 84f
10:42am 11 15 mph 1013.2mb 85f 84f
10:36am 11 15 mph 1013.1mb 85f 84f
10:30am 13 16 mph 1013.1mb 85f 83f
10:24am 14 17 mph 1013.1mb 85f 83f
10:18am 13 16 mph 1013.1mb 85f 83f
10:12am 13 16 mph 1013.1mb 85f 83f
10:06am 13 16 mph 1013mb 85f 83f
10:00am 13 16 mph 1013mb 85f 83f
9:54am 13 15 mph 1013mb 85f 83f
9:48am 10 15 mph 1013mb 85f 83f
9:42am 9 14 mph 1012.9mb 85f 83f
9:36am 10 14 mph 1012.9mb 85f 83f
9:30am 11 14 mph 1012.9mb 85f 82f
9:24am 11 14 mph 1012.8mb 85f 82f
9:18am 10 14 mph 1012.7mb 85f 82f
9:12am 11 14 mph 1012.7mb 85f 82f
9:06am 10 14 mph 1012.7mb 85f 83f
9:00am 11 15 mph 1012.6mb 85f 82f
8:54am 13 15 mph 1012.5mb 85f 82f
8:48am 13 14 mph 1012.4mb 85f 83f
8:42am 10 14 mph 1012.2mb 85f 83f
8:36am 11 15 mph 1012.2mb 85f 83f
8:30am 11 14 mph 1012.1mb 85f 83f
8:24am 10 14 mph 1012.1mb 85f 83f
8:18am 11 14 mph 1012.1mb 85f 83f
8:12am 10 11 mph 1012mb 85f 83f
8:06am 9 11 mph 1011.9mb 85f 83f
8:00am 8 10 mph 1011.8mb 85f 82f
7:54am 7 8 mph 1011.7mb 85f 82f
7:48am 8 10 mph 1011.7mb 85f 82f
7:42am 7 8 mph 1011.6mb 85f 82f
7:36am 6 7 mph 1011.6mb 85f 82f
7:30am 6 7 mph 1011.5mb 85f 82f
7:24am 5 6 mph 1011.5mb 85f 82f
7:18am 5 7 mph 1011.4mb 85f 82f
7:12am 6 7 mph 1011.5mb 85f 81f
7:06am 6 6 mph 1011.4mb 85f 81f
7:00am 5 6 mph 1011.4mb 85f 81f
6:54am 5 6 mph 1011.3mb 85f 80f
6:48am 5 6 mph 1011.2mb 85f 80f
6:42am 6 8 mph 1011.2mb 85f 81f
6:36am 7 8 mph 1011.3mb 85f 81f
6:30am 7 8 mph 1011.4mb 85f 81f
6:24am 7 8 mph 1011.3mb 85f 81f
6:18am 6 8 mph 1011.3mb 85f 82f
6:12am 7 8 mph 1011.4mb 85f 82f
6:06am 7 8 mph 1011.3mb 85f 82f
6:00am 7 8 mph 1011.4mb 85f 81f
5:54am 7 7 mph 1011.4mb 85f 81f
5:48am 6 7 mph 1011.4mb 85f 81f
5:42am 6 6 mph 1011.4mb 85f 81f
5:36am 5 6 mph 1011.3mb 85f 81f
5:30am 5 6 mph 1011.2mb 85f 81f
5:24am 5 6 mph 1011.2mb 85f 80f
5:18am 5 6 mph 1011.1mb 85f 80f
5:12am 5 6 mph 1011.1mb 85f 81f
5:06am 5 6 mph 1011.1mb 85f 81f
5:00am 5 6 mph 1011.1mb 85f 82f
4:54am 5 6 mph 1011.2mb 85f 82f
4:48am 6 7 mph 1011.2mb 85f 82f
4:42am 6 6 mph 1011.3mb 85f 82f
4:36am 5 6 mph 1011.3mb 85f 82f
4:30am 5 6 mph 1011.2mb 85f 82f
4:24am 6 6 mph 1011.3mb 85f 82f
4:18am 5 6 mph 1011.3mb 85f 82f
4:12am 5 6 mph 1011.3mb 85f 82f
4:06am 5 7 mph 1011.3mb 85f 82f
4:00am 5 6 mph 1011.3mb 85f 82f
3:54am 5 7 mph 1011.3mb 85f 82f
3:48am 6 6 mph 1011.3mb 85f 82f
3:42am 5 6 mph 1011.4mb 85f 82f
3:36am 6 6 mph 1011.3mb 85f 82f
3:30am 5 5 mph 1011.3mb 85f 82f
3:24am 5 6 mph 1011.3mb 85f 82f
3:18am 6 6 mph 1011.3mb 85f 82f
3:12am 5 6 mph 1011.4mb 85f 82f
3:06am 6 7 mph 1011.4mb 85f 82f
3:00am 6 8 mph 1011.5mb 85f 82f
2:54am 7 9 mph 1011.5mb 85f 82f
2:48am 8 9 mph 1011.6mb 85f 82f
2:42am 8 9 mph 1011.6mb 85f 82f
2:36am 9 10 mph 1011.6mb 85f 82f
2:30am 8 9 mph 1011.5mb 85f 82f
2:24am 8 9 mph 1011.6mb 85f 82f
2:18am 9 10 mph 1011.7mb 85f 82f
2:12am 9 11 mph 1011.8mb 85f 82f
2:06am 9 11 mph 1011.9mb 85f 82f
2:00am 10 11 mph 1012mb 85f 82f
1:54am 9 11 mph 1012mb 85f 82f
1:48am 11 13 mph 1012.1mb - -
1:42am 10 11 mph 1012.2mb - -
1:36am 11 11 mph 1012.2mb - -
1:30am 10 11 mph 1012.2mb 85f 82f
1:24am 9 11 mph 1012.3mb 85f 82f
1:18am 10 11 mph 1012.5mb 85f 83f
1:12am 10 13 mph 1012.6mb 85f 83f
1:06am 10 13 mph 1012.7mb 85f 83f
1:00am 10 11 mph 1012.8mb 85f 83f
12:54am 10 10 mph 1012.9mb 85f 83f
12:48am 9 10 mph 1012.9mb 85f 83f
12:42am 9 10 mph 1013mb 85f 83f
12:36am 8 9 mph 1013mb 85f 83f
12:30am 8 9 mph 1012.9mb 85f 83f
12:24am 9 9 mph 1012.9mb 85f 83f
12:18am 8 10 mph 1013mb 85f 83f
12:12am 9 10 mph 1013.1mb 85f 83f
12:06am 9 10 mph 1013.2mb 85f 83f
12:00am 8 10 mph 1013.1mb 85f 83f
Mon 06/19 11:54pm 9 10 mph 1013mb 85f 83f
11:48pm 9 9 mph 1012.9mb 85f 83f
11:42pm 9 10 mph 1012.9mb 85f 83f
11:36pm 9 11 mph 1012.8mb 85f 83f
11:30pm 9 10 mph 1012.9mb 85f 83f